Date String (YYYY-MM-DD hh:mm:ss) UTC,Instrument flags,absolute air pressure of the measurement (hPa),sample flow rate (lpm),inlet stack bypass flow (lpm),air temperature of the measurement (°C),ambient temperature measured by the external sensor (°C),aerosol sample conditioner tube jacket temperature (°C),OPC LED temperature (°C),internal box temperature (°C),relative humidity of the measurement (%),span deviation,mass concentration of particles derived from Lorenz-Mie calculation of OPC scattering (μg/m³),mass concentration of particles derived from Lorenz-Mie calculation of OPC scattering (μg/m³),mass concentration of particles derived from Lorenz-Mie calculation of OPC scattering (μg/m³)
DateTimeUTC,F1_M11,P_M11,Q1_M11,Q2_M11,T1_M11,T2_M11,T3_M11,T4_M11,T5_M11,U1_M11,ZSPAN_M11,X0_M11,X2_M11,X1_M11
2023-08-13 19:00:00,SystemResetWarning,0838.2,5.00,000.00,029.2,027.9,000.0,037.6,031.0,24.2,0000.0,0010.47,0003.59,0002.71
2023-08-13 19:01:00,SystemResetWarning,0838.2,5.00,000.00,029.3,028.1,000.0,037.7,031.0,24.1,0000.0,0010.68,0003.57,0002.71
2023-08-13 19:02:00,SystemResetWarning,0838.2,4.99,000.00,029.3,028.2,000.0,037.7,031.1,24.0,0000.0,0010.72,0003.58,0002.70
2023-08-13 19:03:00,SystemResetWarning,0838.2,4.99,000.00,029.3,027.4,000.0,037.6,031.0,24.1,0000.0,0010.41,0003.56,0002.70
2023-08-13 19:04:00,SystemResetWarning,0838.2,5.00,000.00,029.3,025.8,000.0,037.5,030.7,24.0,0000.0,0010.32,0003.54,0002.71
2023-08-13 19:05:00,SystemResetWarning,0838.2,5.01,000.00,029.2,025.6,000.0,037.4,030.5,24.1,0000.0,0010.39,0003.57,0002.72
2023-08-13 19:06:00,SystemResetWarning,0838.2,5.01,000.00,029.1,025.9,000.0,037.5,030.5,24.1,0000.0,0009.86,0003.60,0002.72
2023-08-13 19:07:00,SystemResetWarning,0838.2,4.99,000.00,029.1,026.2,000.0,037.5,030.6,24.0,0000.0,0009.42,0003.62,0002.73
2023-08-13 19:08:00,SystemResetWarning,0838.2,5.00,000.00,029.1,026.6,000.0,037.6,030.7,23.7,0000.0,0009.43,0003.59,0002.71
2023-08-13 19:09:00,SystemResetWarning,0838.3,5.00,000.00,029.1,026.9,000.0,037.6,030.8,23.4,0000.0,0009.93,0003.58,0002.70
2023-08-13 19:10:00,SystemResetWarning,0838.3,4.99,000.00,029.2,027.2,000.0,037.6,030.8,23.6,0000.0,0009.56,0003.58,0002.70
2023-08-13 19:11:00,SystemResetWarning,0838.3,4.99,000.00,029.2,027.5,000.0,037.6,030.9,23.7,0000.0,0009.54,0003.58,0002.70
2023-08-13 19:12:00,SystemResetWarning,0838.3,5.00,000.00,029.2,027.7,000.0,037.7,031.0,23.8,0000.0,0009.35,0003.62,0002.72
2023-08-13 19:13:00,SystemResetWarning,0838.4,5.00,000.00,029.3,027.9,000.0,037.7,031.0,23.5,0000.0,0008.93,0003.64,0002.74
2023-08-13 19:14:00,SystemResetWarning,0838.5,5.01,000.00,029.3,028.1,000.0,037.7,031.1,23.7,0000.0,0008.84,0003.61,0002.75
2023-08-13 19:15:00,SystemResetWarning,0838.4,5.02,000.00,029.4,028.2,000.0,037.7,031.1,24.1,0000.0,0010.12,0003.61,0002.75
2023-08-13 19:16:00,SystemResetWarning,0838.4,4.99,000.00,029.4,028.0,000.0,037.7,031.1,24.3,0000.0,0010.24,0003.60,0002.75
2023-08-13 19:17:00,SystemResetWarning,0838.4,4.99,000.00,029.4,026.3,000.0,037.6,030.8,24.1,0000.0,0010.20,0003.59,0002.76
2023-08-13 19:18:00,SystemResetWarning,0838.4,5.01,000.00,029.3,025.6,000.0,037.5,030.6,23.7,0000.0,0010.68,0003.54,0002.75
2023-08-13 19:19:00,SystemResetWarning,0838.4,5.01,000.00,029.2,025.8,000.0,037.5,030.5,23.7,0000.0,0011.20,0003.53,0002.76
2023-08-13 19:20:00,SystemResetWarning,0838.4,5.00,000.00,029.1,026.1,000.0,037.6,030.5,23.9,0000.0,0011.42,0003.55,0002.77
2023-08-13 19:21:00,SystemResetWarning,0838.4,5.00,000.00,029.1,026.5,000.0,037.6,030.7,24.1,0000.0,0011.77,0003.56,0002.77
2023-08-13 19:22:00,SystemResetWarning,0838.4,5.00,000.00,029.2,026.8,000.0,037.6,030.8,24.3,0000.0,0011.62,0003.55,0002.78
2023-08-13 19:23:00,SystemResetWarning,0838.3,5.00,000.00,029.2,027.2,000.0,037.7,030.8,24.1,0000.0,0011.42,0003.50,0002.79
2023-08-13 19:24:00,SystemResetWarning,0838.2,5.00,000.00,029.2,027.5,000.0,037.7,030.9,24.2,0000.0,0011.00,0003.49,0002.78
2023-08-13 19:25:00,SystemResetWarning,0838.2,5.00,000.00,029.3,027.7,000.0,037.7,031.0,24.0,0000.0,0010.85,0003.51,0002.78
2023-08-13 19:26:00,SystemResetWarning,0838.2,5.00,000.00,029.3,027.9,000.0,037.7,031.0,24.2,0000.0,0009.57,0003.49,0002.78
2023-08-13 19:27:00,SystemResetWarning,0838.2,5.00,000.00,029.3,028.1,000.0,037.7,031.1,24.0,0000.0,0009.58,0003.51,0002.77
2023-08-13 19:28:00,SystemResetWarning,0838.2,5.00,000.00,029.4,028.2,000.0,037.8,031.1,24.1,0000.0,0010.28,0003.52,0002.76
2023-08-13 19:29:00,SystemResetWarning,0838.2,5.01,000.00,029.4,028.3,000.0,037.8,031.2,24.1,0000.0,0010.15,0003.55,0002.76
2023-08-13 19:30:00,SystemResetWarning,0838.2,5.00,000.00,029.5,028.4,000.0,037.8,031.2,24.2,0000.0,0010.19,0003.58,0002.77
2023-08-13 19:31:00,SystemResetWarning,0838.2,4.98,000.00,029.5,027.0,000.0,037.7,030.9,24.1,0000.0,0010.00,0003.58,0002.77
2023-08-13 19:32:00,SystemResetWarning,0838.2,5.01,000.00,029.4,025.7,000.0,037.6,030.7,24.5,0000.0,0009.55,0003.60,0002.78
2023-08-13 19:33:00,SystemResetWarning,0838.2,5.01,000.00,029.3,025.6,000.0,037.6,030.5,24.5,0000.0,0009.48,0003.61,0002.78
2023-08-13 19:34:00,SystemResetWarning,0838.2,5.00,000.00,029.2,025.9,000.0,037.6,030.5,24.5,0000.0,0009.42,0003.63,0002.77
2023-08-13 19:35:00,SystemResetWarning,0838.1,5.00,000.00,029.2,026.3,000.0,037.7,030.6,24.7,0000.0,0009.43,0003.62,0002.78
2023-08-13 19:36:00,SystemResetWarning,0838.2,5.00,000.00,029.2,026.7,000.0,037.7,030.8,24.6,0000.0,0009.20,0003.60,0002.79
2023-08-13 19:37:00,SystemResetWarning,0838.1,5.00,000.00,029.2,027.0,000.0,037.7,030.9,24.4,0000.0,0009.23,0003.60,0002.79
2023-08-13 19:38:00,SystemResetWarning,0838.2,4.99,000.00,029.3,027.3,000.0,037.7,030.9,24.6,0000.0,0009.47,0003.56,0002.77
2023-08-13 19:39:00,SystemResetWarning,0838.1,5.00,000.00,029.3,027.6,000.0,037.8,031.0,25.0,0000.0,0009.47,0003.56,0002.78
2023-08-13 19:40:00,SystemResetWarning,0838.2,5.00,000.00,029.3,027.8,000.0,037.8,031.1,24.7,0000.0,0009.36,0003.55,0002.79
2023-08-13 19:41:00,SystemResetWarning,0838.2,5.00,000.00,029.4,028.0,000.0,037.8,031.1,24.7,0000.0,0008.83,0003.55,0002.79
2023-08-13 19:42:00,SystemResetWarning,0838.2,5.00,000.00,029.4,028.2,000.0,037.8,031.2,24.6,0000.0,0008.25,0003.53,0002.78
2023-08-13 19:43:00,SystemResetWarning,0838.2,5.00,000.00,029.5,028.3,000.0,037.9,031.2,24.9,0000.0,0008.98,0003.48,0002.78
2023-08-13 19:44:00,SystemResetWarning,0838.1,4.99,000.00,029.5,027.6,000.0,037.8,031.1,25.0,0000.0,0009.13,0003.50,0002.79
2023-08-13 19:45:00,SystemResetWarning,0838.2,5.00,000.00,029.4,026.0,000.0,037.7,030.9,24.5,0000.0,0008.99,0003.48,0002.81
2023-08-13 19:46:00,SystemResetWarning,0838.2,5.01,000.00,029.4,025.7,000.0,037.6,030.7,24.4,0000.0,0009.04,0003.50,0002.80
2023-08-13 19:47:00,SystemResetWarning,0838.2,5.00,000.00,029.3,025.9,000.0,037.6,030.6,24.5,0000.0,0008.98,0003.49,0002.80
2023-08-13 19:48:00,SystemResetWarning,0838.1,5.00,000.00,029.2,026.3,000.0,037.7,030.7,24.6,0000.0,0008.98,0003.52,0002.82
2023-08-13 19:49:00,SystemResetWarning,0838.2,5.00,000.00,029.2,026.6,000.0,037.7,030.8,24.9,0000.0,0008.64,0003.57,0002.84
2023-08-13 19:50:00,SystemResetWarning,0838.2,4.99,000.00,029.3,027.0,000.0,037.7,030.9,24.8,0000.0,0008.24,0003.58,0002.86
2023-08-13 19:51:00,SystemResetWarning,0838.2,5.00,000.00,029.3,027.3,000.0,037.8,031.0,25.1,0000.0,0007.85,0003.55,0002.85
2023-08-13 19:52:00,SystemResetWarning,0838.2,5.00,000.00,029.3,027.6,000.0,037.8,031.0,25.1,0000.0,0008.03,0003.56,0002.83
2023-08-13 19:53:00,SystemResetWarning,0838.2,5.00,000.00,029.4,027.8,000.0,037.8,031.1,25.1,0000.0,0007.96,0003.54,0002.84
2023-08-13 19:54:00,SystemResetWarning,0838.1,5.00,000.00,029.4,028.0,000.0,037.8,031.1,25.0,0000.0,0006.94,0003.53,0002.85
2023-08-13 19:55:00,SystemResetWarning,0838.1,5.00,000.00,029.4,028.2,000.0,037.9,031.2,24.7,0000.0,0007.40,0003.47,0002.84
2023-08-13 19:56:00,SystemResetWarning,0838.2,5.00,000.00,029.5,028.0,000.0,037.8,031.2,24.5,0000.0,0007.39,0003.44,0002.83
2023-08-13 19:57:00,SystemResetWarning,0838.2,5.00,000.00,029.4,026.3,000.0,037.7,030.9,24.8,0000.0,0007.42,0003.43,0002.84
2023-08-13 19:58:00,SystemResetWarning,0838.2,5.00,000.00,029.4,025.6,000.0,037.6,030.7,25.0,0000.0,0007.65,0003.49,0002.87
2023-08-13 19:59:00,SystemResetWarning,0838.2,5.01,000.00,029.3,025.8,000.0,037.6,030.6,25.3,0000.0,0007.69,0003.50,0002.87
